www.pogodaiklimat.ru

Погода и климат >> Архив погоды >> Мексика >> Pachuca


ПОГОДА в Pachuca

  • Прогноз погоды в Pachuca
  • Монитор погоды в Pachuca
  • Климат города

АРХИВ ПОГОДЫ в Pachuca

Время (UTC), дата Ветер
(напр.,м/с)
 
Видим.   Явления Облачность Т
(С)
Тd
(С)
f
(%)
Тe
(С)
Тes
(С)
Комфортность P
(гПа)
Po
(гПа)
Тmin
(С)
Tmax
(С)
R
(мм)
R24
(мм)
S
(см)
00 15.02 СВ 2 6000 м мгла 4/4 1000 м
[Cu med, cong]
+16.5 +11.2 71 +17 +17 1014.8 772.7 +6.7 +21.6
03 15.02 СВ 1 4000 м мгла 4/4 1110 м
[Sc]
+14.0 +8.6 70 +14 +14 1017.0 775.5
06 15.02 СЗ 1 4000 м мгла 4/4 1200 м
[Sc]
+11.4 +8.1 80 +11 +11 1017.4 774.9 +6.7 +21.6
09 15.02 Ю 1 4000 м мгла 4/0
[Ac As]
+7.1 +5.7 91 +6 +6 1018.5 773.8
12 15.02 ЮВ 1 4000 м мгла 4/0
[As op]
+4.0 +3.1 94 +2 +2 1021.5 773.7 +3.8 +21.6
15 15.02 ЮЗ 1 3000 м дымка туман 4/4 960 м
[St]
+8.4 +0.7 58 +8 +12 1025.6 775.2
18 15.02 ЮВ 1 6000 м мгла 1/1 1500 м
[Cu Sc]
+18.8 +5.4 41 +20 +37 опасность
простуды
1023.6 774.5 +2.8 +19.6
21 15.02 Ю 2 6000 м мгла 1/1 1050 м
[Cu Sc]
+24.5 +8.7 37 +25 +34 комфорт 1015.4 771.0
00 16.02 С 2 6000 м мгла ясно +20.0 +8.1 46 +22 +22 комфорт 1010.6 770.4 +2.8 +25.5
03 16.02 СВ 2 4000 м мгла ясно +14.6 +4.3 50 +14 +14 1011.2 772.7
09 16.02 Ю 1 4000 м мгла 3/0
[As trans]
+7.4 +3.3 75 +7 +7 1014.7 772.3
12 16.02 ЮЗ 1 4000 м мгла 3/0
[As trans]
+5.0 +0.2 71 +4 +4 1019.3 772.4 +4.8 +25.5
15 16.02 ЮЗ 1 6000 м мгла ясно +10.0 +0.5 52 +10 +16 1022.3 773.1
18 16.02 З 1 6000 м мгла 1/0
[Ac lent]
+20.8 +4.1 33 +22 +39 комфорт 1019.5 772.3 +4.0 +21.5
21 16.02 ЮЗ 1 6000 м мгла 1/0
[Ac lent]
+26.0 +9.2 35 +26 +37 жарко 1011.9 769.5
00 17.02 С 2 6000 м мгла 1/0
[Ac lent]
+20.2 +9.6 50 +22 +22 комфорт 1007.7 769.2 +4.0 +26.8
03 17.02 СВ 2 3000 м мгла ясно +15.8 +2.8 42 +16 +16 1007.5 770.7
06 17.02 ЮЗ 1 3000 м мгла ясно +12.4 +7.3 71 +13 +13 1009.5 771.3 +4.0 +26.8
12 17.02 С 1 4000 м мгла ясно +6.2 +3.4 82 +5 +5 1016.1 770.8 +5.8 +26.8
15 17.02 Ю 1 6000 м мгла 5/0
[Ci]
+10.5 +5.7 72 +10 +16 1020.0 772.1
18 17.02 В 1 6000 м мгла 5/0
[Ci]
+19.5 +10.0 54 +22 +38 комфорт 1018.2 771.6 +5.8 +20.0
21 17.02 С 3 6000 м мгла 4/0
[Ci fib]
+23.4 +7.6 36 +24 +32 комфорт 1012.2 769.6
00 18.02 С 3 6000 м мгла 3/0
[As trans]
+20.5 +5.8 38 +22 +22 комфорт 1008.8 769.6 +5.8 +25.0
12 18.02 С 1 6000 м мгла ясно +6.2 +3.6 83 +5 +5 1016.1 771.8 +6.0 +25.0
15 18.02 Ю 1 6000 м мгла ясно +8.6 +3.2 69 +8 +14 1019.9 772.0
18 18.02 ЮЗ 2 6000 м мгла ясно +18.6 +3.6 37 +19 +35 опасность
простуды
1018.1 771.3 +5.4 +19.4
12 19.02 С 1 6000 м мгла 4/0
[Ac lent]
+7.8 +5.0 82 +7 +7 1014.3 770.3 +7.6 +24.8
15 19.02 Ю 1 6000 м мгла 3/0
[Ac cast]
+12.0 +5.9 66 +12 +17 1017.0 771.0
18 19.02 З 2 6000 м мгла 4/4 1440 м
[Cu med, cong]
+19.4 +7.9 47 +21 +30 комфорт 1015.1 770.2 +7.4 +20.0
21 19.02 СЗ 2 6000 м мгла 5/5 1020 м
[Cu med, cong]
+24.0 +10.5 43 +25 +30 комфорт 1011.6 769.7
00 20.02 СВ 2 6000 м мгла 6/6 1000 м
[Cu med, cong]
+18.8 +10.9 60 +20 +20 1005.7 767.2 +7.4 +24.5
03 20.02 В 1 3000 м мгла 6/6 1200 м
[Sc]
+16.4 +6.6 52 +17 +17 1005.7 768.5
06 20.02 З 1 3000 м мгла 6/6 900 м
[Sc]
+15.4 +8.0 61 +16 +16 1006.9 769.1 +7.4 +24.5
09 20.02 ЮВ 1 3000 м мгла 8/0
[Ac cast]
+13.2 +8.7 74 +13 +13 1008.0 768.3
12 20.02 штиль 0 3000 м мгла 6/0
[Ac cast]
+12.0 +7.4 73 +12 +12 1010.8 769.1 +11.8 +24.5
15 20.02 Ю 1 6000 м мгла 5/1 900 м
[Cu med, cong Ac cast]
+14.8 +7.7 62 +15 +19 1014.1 771.1
18 20.02 Ю 1 6000 м мгла 6/6 1260 м
[Cu med, cong]
+18.6 +8.6 52 +20 +28 1013.3 770.7 +11.8 +19.6
21 20.02 Ю 3 6000 м мгла 6/6 1020 м
[Cu med, cong]
+23.3 +11.6 48 +26 +29 жарко 1007.8 768.0
00 21.02 В 1 6000 м мгла 8/8 1000 м
[Cu med, cong]
+20.3 +10.3 53 +23 +23 комфорт 1005.4 767.8 +11.8 +24.8
03 21.02 ЮВ 1 4000 м мгла {морось} 10/10 750 м
[Frnb]
+16.1 +11.4 74 +17 +17 1007.4 769.9 0.0
06 21.02 З 1 4000 м мгла {морось} 8/8 600 м
[Frnb]
+14.3 +10.1 76 +15 +15 1009.7 771.4 0.3
09 21.02 Ю 1 4000 м мгла 6/1 1020 м
[Sc As op]
+11.1 +9.1 87 +11 +11 1011.9 771.0
12 21.02 ЮВ 1 4000 м мгла 6/0
[Ac As]
+8.8 +7.4 91 +8 +8 1015.0 771.1 +8.6 +24.8
15 21.02 Ю 1 6000 м мгла ясно +12.2 +7.6 73 +12 +18 1018.7 772.8
18 21.02 З 1 6000 м мгла 4/4 1500 м
[Cu med, cong]
+21.2 +7.6 41 +22 +34 комфорт 1016.9 772.4 +8.3 +21.8
21 21.02 В 2 6000 м мгла 5/5 1020 м
[Cu med, cong]
+23.4 +10.7 45 +26 +31 жарко 1011.9 770.4

 

Местоположение метеостанции Pachuca (Мексика): широта 20.13 долгота -98.75 высота над уровнем моря 2435 м.

В архиве по умолчанию представлена погода в Pachuca за последнюю неделю. Архивные данные за месяц целиком и за предыдущие месяцы, начиная с января 2011 года, Вы можете получить, выбрав интересующий диапазон дат из раскрывающегося списка и нажав кнопку "Ввод!".

Внимание! Время в таблицах - всемирное. Для получения местного времени необходимо прибавить поправку, которая в Pachuca равна -6 ч.

Смотрите также архив погоды в соседних городах и на ближайших метеорологических станциях:

Погода в Tulancingo (Мексика) (40 км)
Погода в Mexico City (Мексика) (93 км)
Погода в Institute of Geography (Мексика) (101 км)
Погода в Tlaxcala (Мексика) (104 км)
Погода в Tlaxcala Airport (Мексика) (106 км)
Погода в Matlapa (Мексика) (133 км)
Погода в Puebla (Мексика) (135 км)
Погода в Toluca (Мексика) (136 км)
Погода в Cuernavaca (Мексика) (148 км)
Погода в Zacatepec (Мексика) (165 км)

Пояснения к столбцам:

Ветер - указаны скорость ветра в м/с - средняя за 10 мин, порывы в срок и между сроками (в фигурных скобках) и направление, откуда дует ветер: С - северный, СВ - северо-восточный, В - восточный, ЮВ - юго-восточный, Ю - южный, ЮЗ - юго-западный, З - западный, СЗ - северо-западный.
Видимость - горизонтальная дальность видимости в метрах или километрах. При видимости от 1 до 10 км при отсутствии осадков обычно наблюдается дымка, при ухудшении видимости до 1 км и менее - туман. В сухую погоду видимость может ухудшаться дымом, пылью или мглою.
Явления - указаны атмосферные явления, наблюдавшиеся в срок или в последний час перед сроком; фигурными скобками обозначены явления, наблюдавшиеся между сроками (за 1-3 часа до срока); квадратными скобками обозначены град или гололедные отложения с указанием их диаметра в мм.
Облачность - указаны через наклонную черту общая и нижняя облачность в баллах и высота нижней границы облаков в метрах; квадратными скобками обозначены формы облаков: Ci - перистые, Cs - перисто-слоистые, Cc - перисто-кучевые, Ac - высококучевые, As - высокослоистые, Sc - слоисто-кучевые, Ns - слоисто-дождевые, Cu - кучевые, Cb - кучево-дождевые. Подробнее классификацию облаков см. в Атласе облаков (PDF).
T - Температура воздуха - температура, измеренная на высоте 2 м над землей.
Td - Температура точки росы - температура, при понижении до которой содержащийся в воздухе водяной пар достигнет насыщения.
f - Относительная влажность воздуха - влажноcть воздуха, измеренная на высоте 2 м над землей.
Te - Эффективная температура - температура, которую ощущает одетый по сезону человек в тени. Характеристика душности погоды. При расчете учитывается влияние влажности воздуха и скорости ветра на теплоощущения человека.
Tes - Эффективная температура на солнце - температура, которую ощущает человек, с поправкой на солнечный нагрев. Характеристика знойности погоды. Зависит от высоты солнца над горизонтом, облачности и скорости ветра. Ночью, в пасмурную погоду, а также при ветре 12 м/с и более поправка равна нулю.
P - Атмосферное давление - приведенное к уровню моря атмосферное давление.
Po - Атмосферное давление - измеренное на уровне метеостанции атмосферное давление.
Tmin - Минимальная температура - минимум температуры воздуха на высоте 2 м над землей.
Tmax - Максимальная температура - максимум температуры воздуха на высоте 2 м над землей.
R - Количество осадков - Количество выпавших осадков за период времени, мм. При наведении курсора мыши на число - период времени, за который выпало указанное количество осадков.
R24 - Количество осадков - Количество выпавших осадков за 24 часа, мм.
S - Снежный покров - Высота снежного покрова, см. При наведении курсора мыши на число - состояние снежного покрова и степень покрытия местности в баллах.